Карточка аэропорта UMKK

Внимание!
Информация на этой странице в стадии наполнения.
Если вы не увидели какой-то информации, или заметили неточность - пожалуйста сообщите нам!
Спасибо!
Команда RU-STAFF
Название аэропортаХраброво
Название аэропорта (англ.)Khrabrovo
Превышение43 ft. (13.1 m.)
Координаты54°53.4', 20°35.55'
Высота перехода4000ft
Эшелон переходаFL50 (QNH>=1013hPa); FL60 (QNH<1013hPa); FL50 (QNH<977hPa);
Коды ответчика6620-6637
Зона ОрВДКалининград РПИ (UMKK)
Данные METARUMKK 290900Z 33005G10MPS 9999 FEW040CB 18/15 Q1015 R24/CLRD95 NOSIG RMK QFE760/1014
Проноз погоды (TAF)UMKK 290753Z 2909/3009 36003G10MPS 6000 FEW010 SCT016CB TEMPO 2912/2919 VRB10MPS -TSRA FEW005 BKN016CB BECMG 2919/2921 VRB01MPS TEMPO 2921/3005 0300 FG BKN002 TEMPO 3005/3009 BKN003 BECMG 3005/3007 10003G08MPS
NOTAMshow/hide NOTAM
AWOS   TABLE

Информация о ВПП

ВПП Длина ВПП (м.) Покрытие Курс ВПП Частота ILS
063350Асфальтобетон60110.3
243350Асфальтобетон240109.5

Диспетчерские позиции

Позывной Наименование органа УВД Частота
UMKK_TWRКалининград-Вышка127.2
UMKK_APPКалининград-Подход126.0



Спутниковое изображение